Regional Weather Roundup
Issued by NWS

Home | Current Version | Previous Version | Graphics & Text | Print | Product List | Glossary On
Versions: 1 2 3 4 5 6 7 8 9 10 11 12 13 14 15 16 17 18 19 20 21 22 23 24 25 26 27 28 29 30 31 32 33 34 35 36 37 38 39 40 41 42 43 44 45 46 47 48 49 50
000
ASUS43 KLSX 272207
RWRMO

WEATHER SUMMARY FOR MISSOURI
NATIONAL WEATHER SERVICE SPRINGFIELD MO
500 PM CDT TUE JUN 27 2017

NOTE: "FAIR" INDICATES FEW OR NO CLOUDS BELOW 12,000 FEET WITH NO
       SIGNIFICANT WEATHER AND/OR OBSTRUCTIONS TO VISIBILITY.
       CURRENT SKY AND/OR WEATHER CONDITIONS ARE NOT AVAILABLE FOR
       CHILLICOTHE AND FARMINGTON.

MOZ001>031-035>038-043-044-053-054-272300-
...NORTHERN AND WESTERN MISSOURI...

CITY           SKY/WX    TMP DP  RH WIND       PRES   REMARKS
KANSAS CTY INT CLOUDY    79  66  64 S12       29.96F
KANSAS C DTWN  CLOUDY    82  65  56 S12G21    29.95F
LEE`S SUMMIT   CLOUDY    80  65  59 S12       29.98F
ST JOSEPH      CLOUDY    79  65  62 S14       29.94F
CHILLICOTHE      N/A     80  60  50 S13G18    29.98F
KIRKSVILLE     SUNNY     78  54  43 SE12      30.02F

$$
MOZ066>068-077>081-088>096-101>105-272300-
...SOUTHWEST MISSOURI...

CITY           SKY/WX    TMP DP  RH WIND       PRES   REMARKS
SPRINGFIELD    CLOUDY    81  65  58 S8        30.02F
JOPLIN         MOSUNNY   84  66  54 SE9       29.99F
BRANSON        PTSUNNY   82  63  51 SE6       30.06F

$$
MOZ032>034-039>042-045>050-055>058-069>072-272300-
...CENTRAL MISSOURI...

CITY           SKY/WX    TMP DP  RH WIND       PRES   REMARKS
COLUMBIA       SUNNY     79  60  52 SE9       30.03F
JEFFERSON CITY SUNNY     81  58  45 SE10      30.01F
ROLLA          SUNNY     80  59  48 S6        30.05F
SEDALIA        PTSUNNY   80  67  64 SE13      30.02F
WARRENSBURG    MOSUNNY   79  63  57 SE9       29.99F
OSAGE BEACH    SUNNY     80  64  58 SE8       30.03F

$$
MOZ051-052-059>065-272300-
...EAST CENTRAL MISSOURI...

CITY           SKY/WX    TMP DP  RH WIND       PRES   REMARKS
ST LOUIS INTL  MOSUNNY   82  50  32 E7        30.06F
SPIRIT OF STL  MOSUNNY   80  52  37 VRB6      30.04F
ST CHARLES     SUNNY     80  52  37 VRB6      30.04F

$$
MOZ072>076-082>087-097>100-106>115-272300-
...SOUTH CENTRAL AND SOUTHEAST MISSOURI...

CITY           SKY/WX    TMP DP  RH WIND       PRES   REMARKS
CAPE GIRARDEAU MOSUNNY   80  55  42 S7        30.06F
FARMINGTON     SUNNY     80  57  45 SE7       30.07F
POPLAR BLUFF   SUNNY     80  60  50 SE5       30.06F
WEST PLAINS    MOSUNNY   78  61  55 SE7       30.08F

$$




USA.gov is the U.S. government's official web portal to all federal, state and local government web resources and services.